Regional Weather Roundup
Issued by NWS

Home | Current Version | Previous Version | Graphics & Text | Print | Product List | Glossary On
Versions: 1 2 3 4 5 6 7 8 9 10 11 12 13 14 15 16 17 18 19 20 21 22 23 24 25 26 27 28 29 30 31 32 33 34 35 36 37 38 39 40 41 42 43 44 45 46 47 48 49 50
052
ASUS44 KLIX 311710
RWRLA
LOUISIANA WEATHER ROUNDUP
NATIONAL WEATHER SERVICE NEW ORLEANS LA
1100 AM CST SAT JAN 31 2015

NOTE: "FAIR" INDICATES FEW OR NO CLOUDS BELOW 12,000 FEET WITH NO
      SIGNIFICANT WEATHER AND/OR OBSTRUCTIONS TO VISIBILITY.
      SKY/WX - SKY CONDITION AND SIGNIFICANT WEATHER.
      TMP - AIR TEMPERATURE.    DP   - DEWPOINT TEMPERATURE.
      RH  - RELATIVE HUMIDITY.  PRES - PRESSURE.
      HX  - HEAT INDEX.         WCI  - WIND CHILL INDEX.

*  THESE STATIONS ARE NOT NWS OR FAA STATIONS AND ARE NOT UNDER
   NWS QUALITY CONTROL.

LAZ040-048-061>063-065-066-069-311800-
SOUTHEAST LOUISIANA

CITY           SKY/WX    TMP DP  RH WIND       PRES   REMARKS
N.O. AUDUBON     N/A     61  45  55 MISG        N/A
N.O. INTL ARPT MOSUNNY   59  43  55 NE12      30.30F
N.O. LAKEFRONT SUNNY     57  42  57 E14       30.32F
N.O. DOWNTOWN* NOT AVBL
SLIDELL        SUNNY     56  37  49 NE7       30.32F
BATON ROUGE    MOSUNNY   57  35  43 E8        30.30F
BOOTHVILLE     SUNNY     64  50  60 E13       30.30F
BELLE CHASSE   PTSUNNY   61  44  53 E13       30.29F
BOGALUSA*        N/A     56  26  32 SE6       30.35F
GALLIANO*      SUNNY     64  48  56 MISG      30.28F
NEW ROADS*     FAIR      52  30  43 E7        30.31S
GONZALES*      FAIR      57  41  56 E8        30.29F
HAMMOND*       SUNNY     57  32  38 SE5       30.33F
HOUMA*         SUNNY     61  46  59 NE14      30.28F
PORT FOURCHON* SUNNY     63  54  72 E16       30.30F

$$

LAZ041-044-053-054-311800-
SOUTHWEST LOUISIANA

CITY           SKY/WX    TMP DP  RH WIND       PRES   REMARKS
LAKE CHARLES   PTSUNNY   55  42  61 E10       30.26F
LAFAYETTE      PTSUNNY   58  41  53 VRB7      30.27F
PATTERSON      MOSUNNY   59  43  55 NE9       30.29S
SALT POINT       N/A     60  46  59 VRB6      30.27R
NEW IBERIA     PTSUNNY   59  43  55 E12       30.28F
CHENAULT AIRPK SUNNY     54  41  62 E8        30.27F

$$

LAZ027-028-311800-
CENTRAL LOUISIANA

CITY           SKY/WX    TMP DP  RH WIND       PRES   REMARKS
FORT POLK      PTSUNNY   51  33  50 E6        30.27S
ALEXANDRIA INT MOSUNNY   53  33  46 SE13      30.29F
ALEXANDRIA     MOSUNNY   53  32  44 E8        30.30S

$$

LAZ001-002-311800-
NORTHWEST LOUISIANA

CITY           SKY/WX    TMP DP  RH WIND       PRES   REMARKS
SHREVEPORT     PTSUNNY   51  32  48 SE7       30.28F
BARKSDALE AFB  CLOUDY    49  31  48 SE10      30.29F
DTN SHREVEPORT PTSUNNY   48  30  49 SE12      30.29F

$$

LAZ014-016-311800-
NORTHEAST LOUISIANA

CITY           SKY/WX    TMP DP  RH WIND       PRES   REMARKS
MONROE         PTSUNNY   49  30  48 VRB7      30.33F
TALLULAH       MOSUNNY   50  28  42 E9        30.33F

$$




USA.gov is the U.S. government's official web portal to all federal, state and local government web resources and services.